Location: Unspecified
(0.0000°N, 0.0000°E)
Time: 17:24:28
(UTC+00:00)

Tiros 1 despin weight - All Passes

Search period start: 17 November 2017 00:00
Search period end: 27 November 2017 00:00
Orbit: 595 x 643 km, 48.2° (Epoch: 16 November)

Date Brightness Start Highest point End Pass type
(mag) Time Alt. Az. Time Alt. Az. Time Alt. Az.
17 Nov - 04:26:55 10° SSW 04:31:20 56° SE 04:35:41 10° NE visible
17 Nov - 06:12:17 10° NW 06:12:45 10° NW 06:13:13 10° NW daylight
17 Nov - 16:34:55 10° NW 16:39:31 86° SW 16:44:11 10° SE daylight
18 Nov - 03:04:58 10° SSE 03:06:41 12° SE 03:08:22 10° ESE visible
18 Nov - 04:43:48 10° SW 04:48:09 49° NW 04:52:26 10° NNE visible
18 Nov - 15:11:36 10° N 15:14:56 20° NE 15:18:18 10° E daylight
18 Nov - 16:52:18 10° WNW 16:56:21 31° SW 17:00:29 10° SSE daylight
19 Nov - 03:19:34 10° SSW 03:23:36 31° SE 03:27:33 10° ENE visible
19 Nov - 05:01:54 10° W 05:04:59 18° NW 05:08:02 10° N visible
19 Nov - 15:27:19 10° NNW 15:31:46 53° NE 15:36:18 10° SE daylight
19 Nov - 17:11:32 10° WSW 17:13:16 12° SW 17:15:01 10° SSW daylight
20 Nov - 03:35:53 10° SW 03:40:26 90° SE 03:44:54 10° NE visible
20 Nov - 14:05:42 10° NNE 14:07:09 11° NE 14:08:37 10° ENE daylight
20 Nov - 15:44:08 10° NW 15:48:36 54° SW 15:53:08 10° SSE daylight
21 Nov - 02:12:39 10° S 02:15:50 18° SE 02:18:58 10° E night (unlit)
21 Nov - 03:53:14 10° WSW 03:57:15 31° NW 04:01:12 10° NNE visible
21 Nov - 14:20:03 10° N 14:24:02 30° NE 14:28:04 10° ESE daylight
21 Nov - 16:02:04 10° W 16:05:27 20° SW 16:08:53 10° S daylight
22 Nov - 02:28:17 10° SSW 02:32:42 49° SE 02:37:02 10° NE night (unlit)
22 Nov - 04:12:29 10° WNW 04:14:06 12° NW 04:15:44 10° NNW night (unlit)
22 Nov - 14:36:18 10° NW 14:40:51 85° NE 14:45:28 10° SE daylight
23 Nov - 01:06:56 10° SE 01:08:01 11° SE 01:09:05 10° ESE night (unlit)
23 Nov - 02:45:03 10° SW 02:49:31 56° NW 02:53:54 10° NNE night (unlit)
23 Nov - 13:13:15 10° N 13:16:16 17° NE 13:19:19 10° E daylight
23 Nov - 14:53:33 10° WNW 14:57:41 34° SW 15:01:52 10° SSE daylight
24 Nov - 01:21:00 10° S 01:24:57 28° SE 01:28:50 10° ENE night (unlit)
24 Nov - 03:02:58 10° W 03:06:21 20° NW 03:09:41 10° N night (unlit)
24 Nov - 13:28:47 10° NNW 13:33:07 46° NE 13:37:31 10° SE daylight
24 Nov - 15:12:25 10° WSW 15:14:35 13° SW 15:16:46 10° SSW daylight
25 Nov - 01:37:12 10° SW 01:41:47 80° SE 01:46:17 10° NE night (unlit)
25 Nov - 13:45:29 10° NW 13:49:55 61° SW 13:54:28 10° SSE daylight
26 Nov - 00:14:10 10° S 00:17:10 17° SE 00:20:06 10° E night (unlit)
26 Nov - 01:54:24 10° WSW 01:58:36 35° NW 02:02:43 10° NNE night (unlit)
26 Nov - 12:21:36 10° N 12:25:22 26° NE 12:29:12 10° ESE daylight
26 Nov - 14:03:15 10° WNW 14:06:47 22° SW 14:10:22 10° S daylight
